UAE412 OMDB-YSSY

Flight info

Callsign UAE412
Flight time N/A
Altitude 31000
Route ANVIX L223 TARDI N629 GIDAN P570 EMURU M300 VASTU P895 CIA/N0506F330 P895 BIKOK M641 DOGAR DCT DAOVO DCT PIBED DCT 09S094E 10S095E/N0497F350 DCT POROR DCT 19S106E 21S109E DCT ATLOD DCT ISDOR DCT LST/N0481F370 DCT FRT DCT ENTRE DCT CDU J149 WHA J21 BORLI H205 CULIN Y59 RIVET
Aircraft B77W/H-SDE1E2E3FGHIJ2J3J4J5M1RWXY/LB1D1

Departure

Time N/A
Airport Dubai International Airport (OMDB)

Arrival

Time 2026-05-06 04:09
Airport Sydney Kingsford Smith International Airport (YSSY)
Time Latitude Longitude Altitude Speed Heading
2026-05-06 00:54 -28.35549 121.86678 37421 ft 506 kts 119°
2026-05-06 00:55 -28.37110 121.90272 37420 ft 507 kts 119°
2026-05-06 00:55 -28.40207 121.97411 37425 ft 507 kts 119°
2026-05-06 00:56 -28.43343 122.04652 37423 ft 508 kts 119°
2026-05-06 00:56 -28.46438 122.11813 37443 ft 508 kts 119°
2026-05-06 00:57 -28.49551 122.19029 37424 ft 508 kts 119°
2026-05-06 00:57 -28.52651 122.26227 37426 ft 508 kts 119°
2026-05-06 00:58 -28.55749 122.33435 37425 ft 507 kts 119°
2026-05-06 00:58 -28.58845 122.40648 37426 ft 507 kts 119°
2026-05-06 00:59 -28.61932 122.47855 37448 ft 506 kts 118°
2026-05-06 00:59 -28.65013 122.55062 37431 ft 506 kts 118°
2026-05-06 01:00 -28.68070 122.62225 37423 ft 505 kts 118°
2026-05-06 01:00 -28.71141 122.69435 37435 ft 505 kts 118°
2026-05-06 01:01 -28.74203 122.76636 37446 ft 505 kts 118°
2026-05-06 01:01 -28.77267 122.83853 37453 ft 505 kts 118°
2026-05-06 01:02 -28.80327 122.91077 37437 ft 506 kts 118°
2026-05-06 01:02 -28.83380 122.98295 37439 ft 505 kts 118°
2026-05-06 01:03 -28.86430 123.05523 37436 ft 505 kts 118°
2026-05-06 01:03 -28.89456 123.12704 37441 ft 505 kts 118°
2026-05-06 01:04 -28.92502 123.19948 37436 ft 506 kts 118°
2026-05-06 01:04 -28.95543 123.27191 37443 ft 506 kts 118°
2026-05-06 01:05 -28.98586 123.34454 37444 ft 506 kts 118°
2026-05-06 01:05 -29.01626 123.41725 37440 ft 507 kts 118°
2026-05-06 01:06 -29.04663 123.49000 37438 ft 507 kts 118°
2026-05-06 01:06 -29.07695 123.56278 37445 ft 507 kts 118°
2026-05-06 01:07 -29.10723 123.63560 37437 ft 507 kts 118°
2026-05-06 01:07 -29.13747 123.70845 37433 ft 507 kts 118°
2026-05-06 01:08 -29.16743 123.78078 37438 ft 506 kts 118°
2026-05-06 01:08 -29.19753 123.85357 37440 ft 506 kts 118°
2026-05-06 01:09 -29.22761 123.92646 37441 ft 506 kts 118°
2026-05-06 01:09 -29.25765 123.99939 37442 ft 506 kts 118°
2026-05-06 01:10 -29.28766 124.07238 37442 ft 506 kts 117°
2026-05-06 01:10 -29.31763 124.14540 37442 ft 506 kts 117°
2026-05-06 01:11 -29.34758 124.21854 37435 ft 506 kts 117°
2026-05-06 01:11 -29.37729 124.29121 37442 ft 507 kts 117°
2026-05-06 01:12 -29.40718 124.36448 37441 ft 507 kts 117°
2026-05-06 01:12 -29.43704 124.43781 37443 ft 507 kts 117°
2026-05-06 01:13 -29.46687 124.51119 37441 ft 508 kts 117°
2026-05-06 01:13 -29.49672 124.58478 37455 ft 508 kts 117°
2026-05-06 01:14 -29.54142 124.69525 37442 ft 509 kts 117°
2026-05-06 01:14 -29.57118 124.76898 37447 ft 508 kts 117°
2026-05-06 01:15 -29.59587 124.83025 37447 ft 509 kts 117°
2026-05-06 01:15 -29.63039 124.91611 37460 ft 509 kts 117°
2026-05-06 01:16 -29.65523 124.97798 37452 ft 509 kts 117°
2026-05-06 01:16 -29.68466 125.05144 37443 ft 509 kts 117°
2026-05-06 01:17 -29.71423 125.12539 37443 ft 509 kts 117°
2026-05-06 01:17 -29.74374 125.19935 37445 ft 509 kts 117°
2026-05-06 01:18 -29.77327 125.27349 37452 ft 509 kts 117°
2026-05-06 01:18 -29.80272 125.34757 37447 ft 509 kts 117°
2026-05-06 01:19 -29.83214 125.42174 37427 ft 509 kts 117°
2026-05-06 01:19 -29.86152 125.49595 37450 ft 509 kts 117°
2026-05-06 01:20 -29.89085 125.57018 37459 ft 509 kts 117°
2026-05-06 01:20 -29.92000 125.64412 37437 ft 509 kts 117°
2026-05-06 01:21 -29.94926 125.71847 37440 ft 509 kts 117°
2026-05-06 01:21 -29.97848 125.79289 37448 ft 509 kts 116°
2026-05-06 01:22 -30.00768 125.86737 37436 ft 509 kts 116°
2026-05-06 01:22 -30.03686 125.94197 37447 ft 509 kts 116°
2026-05-06 01:23 -30.06576 126.01601 37441 ft 509 kts 116°
2026-05-06 01:23 -30.09480 126.09057 37441 ft 509 kts 116°
2026-05-06 01:24 -30.12378 126.16512 37439 ft 508 kts 116°
2026-05-06 01:24 -30.15268 126.23960 37461 ft 508 kts 116°
2026-05-06 01:25 -30.18151 126.31408 37443 ft 508 kts 116°
2026-05-06 01:25 -30.21029 126.38854 37449 ft 507 kts 116°
2026-05-06 01:26 -30.23902 126.46306 37442 ft 507 kts 116°
2026-05-06 01:26 -30.26773 126.53767 37438 ft 507 kts 116°
2026-05-06 01:27 -30.29640 126.61231 37438 ft 508 kts 116°
2026-05-06 01:27 -30.32502 126.68700 37439 ft 508 kts 116°
2026-05-06 01:28 -30.35364 126.76184 37424 ft 509 kts 116°
2026-05-06 01:28 -30.38207 126.83633 37435 ft 509 kts 116°
2026-05-06 01:29 -30.41069 126.91149 37450 ft 510 kts 116°
2026-05-06 01:29 -30.43927 126.98668 37436 ft 510 kts 116°
2026-05-06 01:30 -30.46785 127.06204 37434 ft 510 kts 116°
2026-05-06 01:30 -30.49633 127.13731 37441 ft 510 kts 116°
2026-05-06 01:31 -30.52480 127.21268 37456 ft 510 kts 116°
2026-05-06 01:31 -30.55319 127.28803 37431 ft 510 kts 115°
2026-05-06 01:32 -30.58152 127.36335 37434 ft 509 kts 115°
2026-05-06 01:32 -30.60979 127.43869 37433 ft 509 kts 115°
2026-05-06 01:33 -30.63783 127.51357 37444 ft 509 kts 115°
2026-05-06 01:33 -30.66601 127.58897 37431 ft 509 kts 115°
2026-05-06 01:34 -30.69412 127.66437 37432 ft 508 kts 115°
2026-05-06 01:34 -30.72216 127.73972 37417 ft 508 kts 115°
2026-05-06 01:35 -30.75022 127.81529 37429 ft 508 kts 115°
2026-05-06 01:35 -30.77822 127.89086 37434 ft 509 kts 115°
2026-05-06 01:36 -30.80616 127.96646 37421 ft 509 kts 115°
2026-05-06 01:36 -30.83410 128.04219 37427 ft 509 kts 115°
2026-05-06 01:37 -30.86058 128.11817 37428 ft 511 kts 109°
2026-05-06 01:37 -30.88066 128.19755 37435 ft 511 kts 107°
2026-05-06 01:38 -30.89991 128.27717 37427 ft 511 kts 107°
2026-05-06 01:38 -30.91942 128.35685 37419 ft 511 kts 107°
2026-05-06 01:39 -30.93913 128.43642 37423 ft 511 kts 107°
2026-05-06 01:39 -30.95886 128.51595 37444 ft 511 kts 107°
2026-05-06 01:40 -30.97851 128.59541 37411 ft 510 kts 107°
2026-05-06 01:40 -30.99805 128.67476 37399 ft 509 kts 107°
2026-05-06 01:41 -31.01737 128.75348 37421 ft 508 kts 107°
2026-05-06 01:41 -31.03675 128.83266 37417 ft 508 kts 107°
2026-05-06 01:42 -31.05547 128.90935 37416 ft 508 kts 107°
2026-05-06 01:42 -31.07478 128.98869 37413 ft 508 kts 107°
2026-05-06 01:43 -31.09403 129.06801 37407 ft 507 kts 107°
2026-05-06 01:43 -31.11322 129.14735 37403 ft 508 kts 107°
2026-05-06 01:44 -31.13237 129.22672 37420 ft 509 kts 107°
2026-05-06 01:44 -31.15140 129.30582 37414 ft 510 kts 107°
2026-05-06 01:45 -31.17055 129.38568 37402 ft 510 kts 107°
2026-05-06 01:45 -31.18966 129.46558 37413 ft 511 kts 107°
2026-05-06 01:46 -31.20875 129.54567 37407 ft 511 kts 107°
2026-05-06 01:46 -31.22765 129.62520 37418 ft 511 kts 107°
2026-05-06 01:47 -31.24664 129.70532 37406 ft 511 kts 107°
2026-05-06 01:47 -31.26552 129.78526 37401 ft 510 kts 107°
2026-05-06 01:48 -31.28435 129.86521 37395 ft 510 kts 107°
2026-05-06 01:48 -31.30311 129.94508 37402 ft 509 kts 107°
2026-05-06 01:49 -31.32170 130.02451 37406 ft 509 kts 106°
2026-05-06 01:49 -31.34038 130.10450 37401 ft 510 kts 106°
2026-05-06 01:50 -31.35903 130.18469 37404 ft 511 kts 106°
2026-05-06 01:50 -31.37766 130.26499 37397 ft 511 kts 106°
2026-05-06 01:51 -31.39626 130.34539 37410 ft 512 kts 106°
2026-05-06 01:51 -31.41482 130.42589 37404 ft 512 kts 106°
2026-05-06 01:52 -31.43334 130.50648 37396 ft 512 kts 106°
2026-05-06 01:52 -31.45183 130.58722 37399 ft 512 kts 106°
2026-05-06 01:53 -31.47025 130.66783 37407 ft 512 kts 106°
2026-05-06 01:53 -31.48850 130.74800 37400 ft 512 kts 106°
2026-05-06 01:54 -31.50679 130.82860 37390 ft 511 kts 106°
2026-05-06 01:54 -31.52503 130.90921 37397 ft 511 kts 106°
2026-05-06 01:55 -31.54319 130.98972 37397 ft 511 kts 106°
2026-05-06 01:55 -31.56133 131.07032 37395 ft 511 kts 106°
2026-05-06 01:56 -31.57930 131.15042 37387 ft 510 kts 106°
2026-05-06 01:56 -31.59731 131.23094 37390 ft 510 kts 106°
2026-05-06 01:57 -31.61530 131.31165 37387 ft 511 kts 106°
2026-05-06 01:57 -31.63323 131.39236 37383 ft 511 kts 105°
2026-05-06 01:58 -31.65110 131.47310 37394 ft 511 kts 105°
2026-05-06 01:58 -31.66894 131.55392 37385 ft 511 kts 105°
2026-05-06 01:59 -31.68664 131.63435 37386 ft 512 kts 105°
2026-05-06 01:59 -31.70440 131.71535 37391 ft 512 kts 105°
2026-05-06 02:00 -31.72211 131.79637 37373 ft 512 kts 105°
2026-05-06 02:00 -31.73976 131.87736 37395 ft 512 kts 105°
2026-05-06 02:01 -31.75737 131.95846 37382 ft 512 kts 105°
2026-05-06 02:01 -31.77495 132.03970 37389 ft 512 kts 105°
2026-05-06 02:02 -31.79237 132.12043 37382 ft 513 kts 105°
2026-05-06 02:02 -31.80986 132.20177 37366 ft 513 kts 105°
2026-05-06 02:03 -31.82727 132.28303 37378 ft 512 kts 105°
2026-05-06 02:03 -31.84462 132.36430 37393 ft 512 kts 105°
2026-05-06 02:04 -31.86193 132.44562 37372 ft 512 kts 105°
2026-05-06 02:04 -31.87918 132.52693 37376 ft 512 kts 105°
2026-05-06 02:05 -31.89628 132.60779 37373 ft 512 kts 105°
2026-05-06 02:05 -31.91343 132.68918 37393 ft 512 kts 105°
2026-05-06 02:06 -31.93051 132.77053 37371 ft 512 kts 105°
2026-05-06 02:06 -31.94757 132.85205 37372 ft 512 kts 105°
2026-05-06 02:07 -31.96457 132.93354 37369 ft 512 kts 105°
2026-05-06 02:07 -31.98140 133.01453 37381 ft 511 kts 105°
2026-05-06 02:08 -31.99826 133.09593 37366 ft 511 kts 104°
2026-05-06 02:08 -32.01508 133.17738 37369 ft 511 kts 104°
2026-05-06 02:09 -32.03180 133.25869 37353 ft 511 kts 104°
2026-05-06 02:09 -32.04848 133.34006 37368 ft 511 kts 104°
2026-05-06 02:10 -32.06514 133.42159 37367 ft 512 kts 104°
2026-05-06 02:10 -32.08177 133.50328 37365 ft 513 kts 104°
2026-05-06 02:11 -32.09837 133.58516 37363 ft 513 kts 104°
2026-05-06 02:11 -32.11485 133.66665 37364 ft 514 kts 104°
2026-05-06 02:12 -32.13216 133.74853 37356 ft 513 kts 107°
2026-05-06 02:12 -32.15312 133.82903 37358 ft 513 kts 109°
2026-05-06 02:13 -32.17122 133.89635 37354 ft 513 kts 109°
2026-05-06 02:13 -32.19246 133.97624 37365 ft 513 kts 108°
2026-05-06 02:14 -32.21615 134.06677 37346 ft 513 kts 108°
2026-05-06 02:14 -32.23711 134.14742 37356 ft 513 kts 108°
2026-05-06 02:15 -32.25800 134.22806 37362 ft 513 kts 108°
2026-05-06 02:15 -32.27887 134.30873 37358 ft 513 kts 108°
2026-05-06 02:16 -32.29969 134.38943 37350 ft 513 kts 108°
2026-05-06 02:16 -32.32029 134.46955 37346 ft 513 kts 108°
2026-05-06 02:17 -32.34101 134.55035 37349 ft 513 kts 108°
2026-05-06 02:17 -32.36171 134.63130 37334 ft 513 kts 108°
2026-05-06 02:18 -32.38231 134.71210 37351 ft 513 kts 108°
2026-05-06 02:18 -32.40287 134.79299 37349 ft 513 kts 108°
2026-05-06 02:19 -32.42335 134.87384 37341 ft 513 kts 108°
2026-05-06 02:19 -32.44381 134.95478 37342 ft 513 kts 108°
2026-05-06 02:20 -32.47424 135.07570 37342 ft 513 kts 108°
2026-05-06 02:21 -32.49455 135.15665 37339 ft 513 kts 107°
2026-05-06 02:21 -32.51484 135.23784 37336 ft 514 kts 107°
2026-05-06 02:22 -32.53507 135.31898 37332 ft 514 kts 107°
2026-05-06 02:22 -32.55526 135.40024 37355 ft 514 kts 107°
2026-05-06 02:23 -32.57202 135.46787 37331 ft 514 kts 107°
2026-05-06 02:23 -32.59215 135.54932 37340 ft 514 kts 107°
2026-05-06 02:24 -32.61221 135.63074 37332 ft 515 kts 107°
2026-05-06 02:24 -32.63223 135.71225 37325 ft 515 kts 107°
2026-05-06 02:25 -32.65219 135.79392 37333 ft 515 kts 107°
2026-05-06 02:25 -32.67196 135.87561 37327 ft 515 kts 107°
2026-05-06 02:26 -32.69166 135.95730 37324 ft 515 kts 107°
2026-05-06 02:26 -32.71119 136.03849 37326 ft 515 kts 107°
2026-05-06 02:27 -32.73081 136.12027 37321 ft 515 kts 107°
2026-05-06 02:27 -32.75042 136.20227 37333 ft 515 kts 107°
2026-05-06 02:28 -32.76997 136.28426 37319 ft 515 kts 107°
2026-05-06 02:28 -32.78946 136.36624 37320 ft 516 kts 107°
2026-05-06 02:29 -32.83065 136.54044 37319 ft 516 kts 106°
2026-05-06 02:30 -32.84998 136.62259 37297 ft 516 kts 106°
2026-05-06 02:30 -32.86912 136.70419 37316 ft 516 kts 106°
2026-05-06 02:31 -32.88836 136.78646 37324 ft 516 kts 106°
2026-05-06 02:31 -32.90758 136.86896 37305 ft 516 kts 106°
2026-05-06 02:32 -32.92670 136.95129 37314 ft 516 kts 106°
2026-05-06 02:32 -32.94579 137.03374 37302 ft 517 kts 106°
2026-05-06 02:33 -32.96484 137.11630 37311 ft 517 kts 106°
2026-05-06 02:33 -32.97114 137.14363 37298 ft 517 kts 106°
2026-05-06 02:34 -33.00268 137.28108 37310 ft 517 kts 105°
2026-05-06 02:34 -33.02159 137.36383 37301 ft 517 kts 105°
2026-05-06 02:35 -33.04044 137.44661 37287 ft 517 kts 105°
2026-05-06 02:35 -33.05606 137.51536 37307 ft 517 kts 105°
2026-05-06 02:36 -33.07306 137.59866 37307 ft 517 kts 102°
2026-05-06 02:36 -33.08774 137.68264 37302 ft 517 kts 102°
2026-05-06 02:37 -33.10240 137.76669 37300 ft 517 kts 102°
2026-05-06 02:37 -33.11746 137.85076 37285 ft 518 kts 102°
2026-05-06 02:38 -33.13253 137.93411 37310 ft 517 kts 102°
2026-05-06 02:38 -33.14766 138.01806 37299 ft 518 kts 102°
2026-05-06 02:39 -33.16273 138.10215 37318 ft 518 kts 102°
2026-05-06 02:39 -33.17773 138.18636 37299 ft 519 kts 102°
2026-05-06 02:40 -33.19268 138.27061 37301 ft 519 kts 102°
2026-05-06 02:40 -33.20759 138.35498 37299 ft 519 kts 102°
2026-05-06 02:41 -33.22237 138.43892 37310 ft 519 kts 102°
2026-05-06 02:41 -33.23716 138.52329 37299 ft 520 kts 102°
2026-05-06 02:42 -33.25192 138.60785 37287 ft 520 kts 102°
2026-05-06 02:42 -33.26661 138.69236 37294 ft 520 kts 101°
2026-05-06 02:43 -33.28125 138.77699 37292 ft 520 kts 101°
2026-05-06 02:43 -33.29586 138.86173 37279 ft 520 kts 101°
2026-05-06 02:44 -33.31038 138.94638 37274 ft 520 kts 101°
2026-05-06 02:44 -33.32479 139.03068 37267 ft 520 kts 101°
2026-05-06 02:45 -33.33920 139.11540 37277 ft 520 kts 101°
2026-05-06 02:45 -33.35356 139.20015 37269 ft 520 kts 101°
2026-05-06 02:46 -33.36788 139.28508 37264 ft 520 kts 101°
2026-05-06 02:46 -33.38213 139.36987 37269 ft 519 kts 101°
2026-05-06 02:47 -33.39614 139.45463 37260 ft 519 kts 100°
2026-05-06 02:47 -33.40945 139.53961 37259 ft 519 kts 100°
2026-05-06 02:48 -33.42249 139.62404 37245 ft 519 kts 100°
2026-05-06 02:48 -33.43573 139.70955 37258 ft 519 kts 100°
2026-05-06 02:49 -33.44891 139.79459 37262 ft 520 kts 100°
2026-05-06 02:49 -33.46195 139.87914 37267 ft 520 kts 100°
2026-05-06 02:50 -33.47503 139.96434 37261 ft 520 kts 100°
2026-05-06 02:50 -33.48806 140.04966 37259 ft 521 kts 99°
2026-05-06 02:51 -33.50104 140.13502 37256 ft 521 kts 99°
2026-05-06 02:51 -33.51396 140.22049 37259 ft 521 kts 99°
2026-05-06 02:52 -33.52683 140.30596 37258 ft 521 kts 99°
2026-05-06 02:52 -33.53963 140.39142 37251 ft 521 kts 99°
2026-05-06 02:53 -33.55240 140.47708 37253 ft 521 kts 99°
2026-05-06 02:53 -33.56508 140.56258 37251 ft 521 kts 99°
2026-05-06 02:54 -33.57762 140.64750 37248 ft 521 kts 99°
2026-05-06 02:54 -33.59017 140.73298 37248 ft 521 kts 99°
2026-05-06 02:55 -33.60269 140.81863 37247 ft 521 kts 99°
2026-05-06 02:55 -33.61514 140.90426 37247 ft 521 kts 99°
2026-05-06 02:56 -33.62753 140.98984 37241 ft 521 kts 99°
2026-05-06 02:56 -33.63984 141.07542 37241 ft 521 kts 99°
2026-05-06 02:57 -33.65211 141.16115 37246 ft 521 kts 99°
2026-05-06 02:57 -33.66431 141.24686 37239 ft 521 kts 98°
2026-05-06 02:58 -33.67644 141.33255 37239 ft 521 kts 98°
2026-05-06 02:58 -33.68851 141.41821 37231 ft 520 kts 98°
2026-05-06 02:59 -33.70052 141.50384 37237 ft 520 kts 98°
2026-05-06 02:59 -33.71246 141.58950 37238 ft 520 kts 98°
2026-05-06 03:00 -33.72434 141.67514 37236 ft 520 kts 98°
2026-05-06 03:00 -33.73618 141.76093 37243 ft 520 kts 98°
2026-05-06 03:01 -33.74789 141.84624 37245 ft 520 kts 98°
2026-05-06 03:01 -33.75962 141.93217 37231 ft 521 kts 98°
2026-05-06 03:02 -33.77129 142.01807 37227 ft 521 kts 98°
2026-05-06 03:02 -33.78290 142.10403 37228 ft 521 kts 98°
2026-05-06 03:03 -33.79445 142.19001 37226 ft 521 kts 98°
2026-05-06 03:03 -33.80595 142.27604 37213 ft 520 kts 98°
2026-05-06 03:04 -33.81730 142.36144 37222 ft 520 kts 98°
2026-05-06 03:04 -33.82873 142.44795 37224 ft 520 kts 98°
2026-05-06 03:05 -33.83995 142.53330 37230 ft 521 kts 98°
2026-05-06 03:05 -33.85120 142.61946 37223 ft 521 kts 97°
2026-05-06 03:06 -33.86236 142.70558 37219 ft 521 kts 97°
2026-05-06 03:06 -33.87345 142.79170 37224 ft 521 kts 97°
2026-05-06 03:07 -33.88448 142.87782 37219 ft 521 kts 97°
2026-05-06 03:07 -33.89547 142.96405 37217 ft 521 kts 97°
2026-05-06 03:08 -33.90639 143.05016 37226 ft 521 kts 97°
2026-05-06 03:08 -33.91725 143.13639 37218 ft 521 kts 97°
2026-05-06 03:09 -33.92805 143.22265 37196 ft 521 kts 97°
2026-05-06 03:09 -33.93871 143.30827 37214 ft 520 kts 97°
2026-05-06 03:10 -33.94938 143.39443 37216 ft 520 kts 97°
2026-05-06 03:10 -33.95999 143.48062 37216 ft 520 kts 97°
2026-05-06 03:11 -33.97055 143.56695 37219 ft 520 kts 97°
2026-05-06 03:11 -33.98104 143.65327 37214 ft 521 kts 97°
2026-05-06 03:12 -33.99149 143.73970 37215 ft 521 kts 97°
2026-05-06 03:12 -34.00187 143.82609 37215 ft 521 kts 97°
2026-05-06 03:13 -34.01213 143.91196 37215 ft 521 kts 97°
2026-05-06 03:13 -34.02239 143.99845 37213 ft 521 kts 97°
2026-05-06 03:14 -34.03260 144.08496 37213 ft 521 kts 97°
2026-05-06 03:14 -34.04274 144.17143 37192 ft 521 kts 97°
2026-05-06 03:15 -34.05282 144.25794 37211 ft 520 kts 96°
2026-05-06 03:15 -34.06276 144.34379 37217 ft 520 kts 96°
2026-05-06 03:16 -34.07272 144.43035 37214 ft 520 kts 96°
2026-05-06 03:16 -34.08260 144.51674 37212 ft 519 kts 96°
2026-05-06 03:16 -34.08746 144.55934 37181 ft 503 kts 96°
2026-05-06 03:17 -34.09215 144.60060 37196 ft 492 kts 96°
2026-05-06 03:17 -34.10140 144.68259 37227 ft 499 kts 96°
2026-05-06 03:18 -34.11080 144.76662 37235 ft 512 kts 96°
2026-05-06 03:18 -34.12039 144.85275 37225 ft 522 kts 96°
2026-05-06 03:19 -34.13005 144.93980 37207 ft 524 kts 96°
2026-05-06 03:19 -34.13959 145.02641 37195 ft 523 kts 96°
2026-05-06 03:20 -34.15383 145.15681 37195 ft 521 kts 96°
2026-05-06 03:20 -34.16322 145.24354 37202 ft 520 kts 96°
2026-05-06 03:21 -34.17252 145.33008 37204 ft 519 kts 96°
2026-05-06 03:21 -34.18020 145.40197 37205 ft 519 kts 96°
2026-05-06 03:22 -34.19087 145.50247 37202 ft 519 kts 96°
2026-05-06 03:22 -34.19997 145.58890 37202 ft 519 kts 96°
2026-05-06 03:23 -34.20755 145.66131 37202 ft 519 kts 95°
2026-05-06 03:23 -34.21654 145.74779 37203 ft 519 kts 95°
2026-05-06 03:24 -34.22541 145.83362 37204 ft 519 kts 95°
2026-05-06 03:24 -34.23431 145.92045 37203 ft 519 kts 95°
2026-05-06 03:25 -34.24317 146.00732 37203 ft 519 kts 95°
2026-05-06 03:25 -34.25305 146.09386 37202 ft 520 kts 99°
2026-05-06 03:26 -34.26681 146.17976 37200 ft 520 kts 100°
2026-05-06 03:26 -34.28100 146.26497 37196 ft 520 kts 100°
2026-05-06 03:27 -34.29503 146.35099 37199 ft 521 kts 99°
2026-05-06 03:27 -34.30877 146.43704 37202 ft 521 kts 99°
2026-05-06 03:28 -34.32230 146.52256 37197 ft 519 kts 99°
2026-05-06 03:28 -34.33582 146.60843 37205 ft 520 kts 99°
2026-05-06 03:29 -34.34934 146.69455 37193 ft 521 kts 99°
2026-05-06 03:29 -34.36283 146.78092 37192 ft 521 kts 99°
2026-05-06 03:30 -34.37610 146.86619 37191 ft 522 kts 99°
2026-05-06 03:30 -34.38958 146.95335 37199 ft 522 kts 99°
2026-05-06 03:31 -34.40280 147.03913 37197 ft 522 kts 99°
2026-05-06 03:31 -34.41605 147.12562 37191 ft 522 kts 99°
2026-05-06 03:32 -34.42922 147.21198 37183 ft 521 kts 99°
2026-05-06 03:32 -34.44232 147.29826 37186 ft 520 kts 99°
2026-05-06 03:33 -34.45526 147.38397 37181 ft 520 kts 99°
2026-05-06 03:33 -34.46821 147.47021 37180 ft 519 kts 99°
2026-05-06 03:34 -34.48109 147.55635 37180 ft 519 kts 99°
2026-05-06 03:34 -34.49391 147.64249 37178 ft 519 kts 98°
2026-05-06 03:35 -34.50667 147.72872 37170 ft 519 kts 98°
2026-05-06 03:35 -34.51937 147.81496 37179 ft 520 kts 98°
2026-05-06 03:36 -34.53194 147.90074 37180 ft 521 kts 98°
2026-05-06 03:36 -34.54457 147.98744 37183 ft 521 kts 98°
2026-05-06 03:37 -34.55715 148.07415 37178 ft 522 kts 98°
2026-05-06 03:37 -34.56967 148.16093 37172 ft 522 kts 98°
2026-05-06 03:38 -34.58214 148.24785 37167 ft 522 kts 98°
2026-05-06 03:38 -34.59454 148.33465 37162 ft 522 kts 98°
2026-05-06 03:39 -34.60680 148.42098 37168 ft 522 kts 98°
2026-05-06 03:39 -34.62015 148.51550 37161 ft 521 kts 98°
2026-05-06 03:40 -34.63235 148.60239 37156 ft 521 kts 98°
2026-05-06 03:40 -34.64447 148.68914 37154 ft 521 kts 98°
2026-05-06 03:41 -34.65654 148.77598 37155 ft 521 kts 98°
2026-05-06 03:41 -34.66854 148.86285 37150 ft 521 kts 98°
2026-05-06 03:42 -34.68039 148.94906 37144 ft 521 kts 98°
2026-05-06 03:42 -34.69227 149.03592 37142 ft 521 kts 98°
2026-05-06 03:43 -34.70404 149.12250 36933 ft 517 kts 98°
2026-05-06 03:43 -34.70988 149.16559 36596 ft 516 kts 98°
2026-05-06 03:43 -34.71570 149.20874 36204 ft 517 kts 98°
2026-05-06 03:44 -34.72152 149.25189 35843 ft 517 kts 98°
2026-05-06 03:44 -34.72731 149.29504 35494 ft 516 kts 98°
2026-05-06 03:44 -34.73220 149.33805 35133 ft 513 kts 91°
2026-05-06 03:44 -34.73115 149.38128 34489 ft 511 kts 80°
2026-05-06 03:45 -34.72363 149.42338 33554 ft 509 kts 70°
2026-05-06 03:45 -34.71029 149.46292 32585 ft 503 kts 59°
2026-05-06 03:45 -34.69344 149.50007 31647 ft 502 kts 58°
2026-05-06 03:45 -34.67647 149.53723 30663 ft 503 kts 59°
2026-05-06 03:46 -34.65988 149.57402 29937 ft 499 kts 59°
2026-05-06 03:46 -34.64348 149.61094 29175 ft 494 kts 59°
2026-05-06 03:46 -34.62737 149.64759 28507 ft 488 kts 60°
2026-05-06 03:46 -34.61154 149.68376 27883 ft 482 kts 60°
2026-05-06 03:47 -34.59587 149.71958 27235 ft 477 kts 60°
2026-05-06 03:47 -34.58038 149.75494 26596 ft 473 kts 60°
2026-05-06 03:47 -34.56501 149.78995 25979 ft 468 kts 60°
2026-05-06 03:47 -34.54969 149.82479 25374 ft 465 kts 60°
2026-05-06 03:48 -34.53449 149.85930 24766 ft 462 kts 60°
2026-05-06 03:48 -34.52448 149.88204 24361 ft 460 kts 60°
2026-05-06 03:48 -34.50944 149.91613 23756 ft 457 kts 60°
2026-05-06 03:48 -34.48960 149.96104 22833 ft 454 kts 60°
2026-05-06 03:49 -34.47475 149.99460 22194 ft 450 kts 60°
2026-05-06 03:49 -34.46004 150.02784 21604 ft 446 kts 60°
2026-05-06 03:49 -34.45016 150.05016 21200 ft 443 kts 60°
2026-05-06 03:49 -34.43563 150.08294 20617 ft 439 kts 60°
2026-05-06 03:50 -34.42143 150.11492 20030 ft 435 kts 59°
2026-05-06 03:50 -34.40714 150.14708 19469 ft 432 kts 59°
2026-05-06 03:50 -34.39298 150.17898 18889 ft 429 kts 60°
2026-05-06 03:50 -34.37890 150.21066 18306 ft 426 kts 60°
2026-05-06 03:51 -34.36486 150.24220 17648 ft 423 kts 60°
2026-05-06 03:51 -34.35093 150.27346 17056 ft 420 kts 59°
2026-05-06 03:51 -34.33710 150.30445 16466 ft 417 kts 59°
2026-05-06 03:51 -34.32337 150.33520 15904 ft 414 kts 59°
2026-05-06 03:52 -34.30973 150.36575 15339 ft 411 kts 59°
2026-05-06 03:52 -34.29618 150.39607 14790 ft 408 kts 59°
2026-05-06 03:52 -34.28268 150.42622 14226 ft 407 kts 59°
2026-05-06 03:52 -34.26922 150.45628 13635 ft 405 kts 59°
2026-05-06 03:53 -34.25592 150.48599 12973 ft 396 kts 59°
2026-05-06 03:53 -34.24304 150.51479 12359 ft 384 kts 59°
2026-05-06 03:53 -34.23034 150.54313 11811 ft 383 kts 59°
2026-05-06 03:53 -34.21782 150.57102 11277 ft 381 kts 59°
2026-05-06 03:54 -34.20508 150.59945 10917 ft 375 kts 60°
2026-05-06 03:54 -34.19301 150.62632 10756 ft 363 kts 59°
2026-05-06 03:54 -34.18142 150.65213 10573 ft 332 kts 59°
2026-05-06 03:54 -34.17095 150.67550 10423 ft 302 kts 59°
2026-05-06 03:55 -34.16110 150.69739 10037 ft 298 kts 59°
2026-05-06 03:55 -34.15119 150.71931 9710 ft 295 kts 59°
2026-05-06 03:55 -34.14143 150.74094 9429 ft 292 kts 59°
2026-05-06 03:55 -34.13178 150.76236 9102 ft 289 kts 59°
2026-05-06 03:56 -34.12224 150.78352 8786 ft 280 kts 59°
2026-05-06 03:56 -34.11310 150.80371 8205 ft 270 kts 57°
2026-05-06 03:56 -34.10075 150.82051 7667 ft 268 kts 34°
2026-05-06 03:56 -34.08523 150.83261 7419 ft 263 kts 29°
2026-05-06 03:57 -34.06948 150.84361 7166 ft 260 kts 28°
2026-05-06 03:57 -34.05380 150.85441 6907 ft 258 kts 28°
2026-05-06 03:57 -34.03822 150.86508 6609 ft 257 kts 28°
2026-05-06 03:57 -34.02264 150.87566 6310 ft 255 kts 28°
2026-05-06 03:58 -34.00739 150.88596 6098 ft 246 kts 28°
2026-05-06 03:58 -33.99309 150.89559 6017 ft 235 kts 28°
2026-05-06 03:58 -33.97879 150.90520 5975 ft 234 kts 27°
2026-05-06 03:58 -33.96468 150.91472 5977 ft 231 kts 28°
2026-05-06 03:59 -33.95079 150.92407 5918 ft 227 kts 27°
2026-05-06 03:59 -33.93694 150.93336 5583 ft 229 kts 28°
2026-05-06 03:59 -33.92303 150.94266 5265 ft 226 kts 27°
2026-05-06 03:59 -33.90955 150.95164 4960 ft 215 kts 28°
2026-05-06 04:00 -33.89674 150.96018 4783 ft 211 kts 28°
2026-05-06 04:00 -33.88385 150.96877 4539 ft 217 kts 28°
2026-05-06 04:00 -33.87082 150.97744 4263 ft 210 kts 28°
2026-05-06 04:00 -33.85839 150.98568 3990 ft 201 kts 28°
2026-05-06 04:01 -33.84632 150.99365 3734 ft 194 kts 28°
2026-05-06 04:01 -33.83456 151.00136 3477 ft 191 kts 28°
2026-05-06 04:01 -33.82306 151.00883 3262 ft 187 kts 28°
2026-05-06 04:01 -33.81168 151.01617 3055 ft 181 kts 27°
2026-05-06 04:02 -33.80069 151.02323 3014 ft 177 kts 27°
2026-05-06 04:02 -33.78983 151.03020 2984 ft 175 kts 27°
2026-05-06 04:02 -33.77901 151.03713 2984 ft 177 kts 27°
2026-05-06 04:02 -33.76810 151.04412 2983 ft 177 kts 27°
2026-05-06 04:03 -33.75787 151.05169 2946 ft 176 kts 44°
2026-05-06 04:03 -33.75042 151.06349 2995 ft 180 kts 53°
2026-05-06 04:03 -33.74297 151.07587 2990 ft 180 kts 53°
2026-05-06 04:03 -33.73787 151.08932 2965 ft 183 kts 84°
2026-05-06 04:04 -33.74096 151.10409 2993 ft 189 kts 124°
2026-05-06 04:04 -33.75086 151.11451 3003 ft 193 kts 146°
2026-05-06 04:04 -33.76218 151.12315 2976 ft 190 kts 147°
2026-05-06 04:04 -33.77371 151.13003 2971 ft 182 kts 161°
2026-05-06 04:05 -33.78594 151.13419 2929 ft 186 kts 166°
2026-05-06 04:05 -33.79866 151.13767 2674 ft 186 kts 167°
2026-05-06 04:05 -33.81095 151.14086 2406 ft 176 kts 167°
2026-05-06 04:05 -33.82245 151.14382 2186 ft 162 kts 167°
2026-05-06 04:06 -33.83322 151.14661 2000 ft 157 kts 167°
2026-05-06 04:06 -33.84399 151.14940 1777 ft 159 kts 166°
2026-05-06 04:06 -33.85477 151.15220 1564 ft 159 kts 167°
2026-05-06 04:06 -33.86541 151.15496 1331 ft 150 kts 166°
2026-05-06 04:07 -33.87497 151.15744 1145 ft 137 kts 167°
2026-05-06 04:07 -33.88412 151.15977 930 ft 132 kts 166°
2026-05-06 04:07 -33.89309 151.16213 799 ft 132 kts 166°
2026-05-06 04:07 -33.90220 151.16450 672 ft 135 kts 168°
2026-05-06 04:08 -33.91144 151.16690 458 ft 136 kts 167°
2026-05-06 04:08 -33.92045 151.16919 259 ft 130 kts 167°
2026-05-06 04:08 -33.92932 151.17154 97 ft 131 kts 167°
2026-05-06 04:08 -33.93786 151.17381 32 ft 114 kts 167°
2026-05-06 04:09 -33.94382 151.17536 35 ft 61 kts 168°
2026-05-06 04:09 -33.94672 151.17609 34 ft 39 kts 168°
2026-05-06 04:09 -33.94843 151.17645 34 ft 19 kts 174°
2026-05-06 04:09 -33.94964 151.17649 33 ft 12 kts 184°
2026-05-06 04:10 -33.95044 151.17637 32 ft 8 kts 189°
2026-05-06 04:10 -33.95100 151.17624 33 ft 8 kts 191°
2026-05-06 04:10 -33.95146 151.17588 34 ft 8 kts 242°
2026-05-06 04:10 -33.95123 151.17532 34 ft 9 kts 330°
2026-05-06 04:11 -33.95059 151.17507 33 ft 11 kts 346°
2026-05-06 04:11 -33.94978 151.17486 34 ft 12 kts 348°
2026-05-06 04:11 -33.94892 151.17464 34 ft 13 kts 348°
2026-05-06 04:11 -33.94803 151.17441 35 ft 13 kts 348°
2026-05-06 04:12 -33.94715 151.17418 35 ft 13 kts 348°
2026-05-06 04:12 -33.94626 151.17395 35 ft 13 kts 348°
2026-05-06 04:12 -33.94538 151.17372 35 ft 13 kts 348°
2026-05-06 04:12 -33.94450 151.17349 35 ft 13 kts 348°
2026-05-06 04:13 -33.94362 151.17326 35 ft 13 kts 348°
2026-05-06 04:13 -33.94271 151.17303 35 ft 14 kts 348°
2026-05-06 04:13 -33.94173 151.17278 33 ft 15 kts 348°
2026-05-06 04:13 -33.94071 151.17251 34 ft 15 kts 348°
2026-05-06 04:14 -33.93968 151.17224 34 ft 15 kts 348°
2026-05-06 04:14 -33.93865 151.17198 34 ft 15 kts 348°
2026-05-06 04:14 -33.93762 151.17171 34 ft 15 kts 347°
2026-05-06 04:14 -33.93659 151.17144 34 ft 15 kts 348°
2026-05-06 04:15 -33.93587 151.17125 34 ft 11 kts 348°
2026-05-06 04:15 -33.93520 151.17101 34 ft 9 kts 324°
2026-05-06 04:15 -33.93505 151.17036 35 ft 8 kts 268°
2026-05-06 04:15 -33.93514 151.16967 35 ft 8 kts 258°
2026-05-06 04:16 -33.93526 151.16901 35 ft 8 kts 253°
2026-05-06 04:16 -33.93544 151.16855 35 ft 5 kts 240°
2026-05-06 04:16 -33.93557 151.16831 35 ft 2 kts 237°
2026-05-06 04:16 -33.93561 151.16823 35 ft 1 kts 237°
2026-05-06 04:17 -33.93562 151.16823 35 ft 0 kts 237°